{"data":{"norad_id":63969,"intl_designator":"2025-099T","name":"STARLINK-34112","alt_names":[],"object_type":"PAYLOAD","status":"ACTIVE","operator":null,"country":"US","launch_date":"2025-05-13","launch_site_code":"AFETR","launch_vehicle":null,"mission":null,"orbit_class":"UNKNOWN","rcs_meters":null,"size_class":null,"mass_kg":null,"dimensions":null,"purposes":["comms"],"wikipedia_slug":null,"has_3d_model":false,"image_url":null,"decayed_at":null,"tle_current":{"epoch":"2026-09-20T10:19:28.754688Z","epoch_age_seconds":149768,"freshness":"FRESH","line1":"1 63969U 25099T   26263.43019392  .00010590  00000+0  39371-3 0  9998","line2":"2 63969  43.0028 156.0545 0001793 276.1960  83.8687 15.27587864 77129","mean_motion":15.27587864,"eccentricity":0.0001793,"inclination_deg":43.0028,"raan_deg":156.0545,"arg_perigee_deg":276.196,"mean_anomaly_deg":83.8687,"bstar":0.00039371,"rev_number":7712,"period_min":94.266263429807,"perigee_km":481.79534205067,"apogee_km":484.25575494056,"semimajor_km":6861.1625484956,"source":"CELESTRAK","updated_at":"2026-09-21T09:00:35.177314Z"}}}